Index of /20260502/WXO-DD/model_caps/3km/00/036
Name Last modified Size Description
Parent Directory -
20260502T00Z_MSC_CAPS_AbsoluteVorticity_IsbL-0250_RLatLon0.03_PT036H.grib2 2026-05-02 06:16 1.0M
20260502T00Z_MSC_CAPS_AbsoluteVorticity_IsbL-0500_RLatLon0.03_PT036H.grib2 2026-05-02 06:16 1.1M
20260502T00Z_MSC_CAPS_AbsoluteVorticity_IsbL-0700_RLatLon0.03_PT036H.grib2 2026-05-02 06:16 1.1M
20260502T00Z_MSC_CAPS_AbsoluteVorticity_IsbL-0850_RLatLon0.03_PT036H.grib2 2026-05-02 06:16 1.2M
20260502T00Z_MSC_CAPS_AbsoluteVorticity_IsbL-1000_RLatLon0.03_PT036H.grib2 2026-05-02 06:16 1.4M
20260502T00Z_MSC_CAPS_AirDensity_AGL-120m_RLatLon0.03_PT036H.grib2 2026-05-02 06:16 1.4M
20260502T00Z_MSC_CAPS_AirDensity_AGL-40m_RLatLon0.03_PT036H.grib2 2026-05-02 06:16 1.4M
20260502T00Z_MSC_CAPS_AirDensity_AGL-80m_RLatLon0.03_PT036H.grib2 2026-05-02 06:16 1.4M
20260502T00Z_MSC_CAPS_AirTemp_AGL-120m_RLatLon0.03_PT036H.grib2 2026-05-02 06:16 1.4M
20260502T00Z_MSC_CAPS_AirTemp_AGL-2m_RLatLon0.03_PT036H.grib2 2026-05-02 06:16 1.7M
20260502T00Z_MSC_CAPS_AirTemp_AGL-40m_RLatLon0.03_PT036H.grib2 2026-05-02 06:16 1.5M
20260502T00Z_MSC_CAPS_AirTemp_AGL-80m_RLatLon0.03_PT036H.grib2 2026-05-02 06:16 1.4M
20260502T00Z_MSC_CAPS_AirTemp_IsbL-0050_RLatLon0.03_PT036H.grib2 2026-05-02 06:16 692K
20260502T00Z_MSC_CAPS_AirTemp_IsbL-0100_RLatLon0.03_PT036H.grib2 2026-05-02 06:16 732K
20260502T00Z_MSC_CAPS_AirTemp_IsbL-0150_RLatLon0.03_PT036H.grib2 2026-05-02 06:16 751K
20260502T00Z_MSC_CAPS_AirTemp_IsbL-0175_RLatLon0.03_PT036H.grib2 2026-05-02 06:16 765K
20260502T00Z_MSC_CAPS_AirTemp_IsbL-0200_RLatLon0.03_PT036H.grib2 2026-05-02 06:16 785K
20260502T00Z_MSC_CAPS_AirTemp_IsbL-0225_RLatLon0.03_PT036H.grib2 2026-05-02 06:16 792K
20260502T00Z_MSC_CAPS_AirTemp_IsbL-0250_RLatLon0.03_PT036H.grib2 2026-05-02 06:16 783K
20260502T00Z_MSC_CAPS_AirTemp_IsbL-0275_RLatLon0.03_PT036H.grib2 2026-05-02 06:16 1.0M
20260502T00Z_MSC_CAPS_AirTemp_IsbL-0300_RLatLon0.03_PT036H.grib2 2026-05-02 06:16 1.0M
20260502T00Z_MSC_CAPS_AirTemp_IsbL-0350_RLatLon0.03_PT036H.grib2 2026-05-02 06:16 746K
20260502T00Z_MSC_CAPS_AirTemp_IsbL-0400_RLatLon0.03_PT036H.grib2 2026-05-02 06:16 752K
20260502T00Z_MSC_CAPS_AirTemp_IsbL-0450_RLatLon0.03_PT036H.grib2 2026-05-02 06:16 774K
20260502T00Z_MSC_CAPS_AirTemp_IsbL-0500_RLatLon0.03_PT036H.grib2 2026-05-02 06:16 793K
20260502T00Z_MSC_CAPS_AirTemp_IsbL-0550_RLatLon0.03_PT036H.grib2 2026-05-02 06:16 960K
20260502T00Z_MSC_CAPS_AirTemp_IsbL-0600_RLatLon0.03_PT036H.grib2 2026-05-02 06:16 1.0M
20260502T00Z_MSC_CAPS_AirTemp_IsbL-0650_RLatLon0.03_PT036H.grib2 2026-05-02 06:16 1.0M
20260502T00Z_MSC_CAPS_AirTemp_IsbL-0700_RLatLon0.03_PT036H.grib2 2026-05-02 06:16 1.0M
20260502T00Z_MSC_CAPS_AirTemp_IsbL-0750_RLatLon0.03_PT036H.grib2 2026-05-02 06:16 1.0M
20260502T00Z_MSC_CAPS_AirTemp_IsbL-0800_RLatLon0.03_PT036H.grib2 2026-05-02 06:16 1.1M
20260502T00Z_MSC_CAPS_AirTemp_IsbL-0850_RLatLon0.03_PT036H.grib2 2026-05-02 06:16 1.1M
20260502T00Z_MSC_CAPS_AirTemp_IsbL-0875_RLatLon0.03_PT036H.grib2 2026-05-02 06:16 1.1M
20260502T00Z_MSC_CAPS_AirTemp_IsbL-0900_RLatLon0.03_PT036H.grib2 2026-05-02 06:16 1.1M
20260502T00Z_MSC_CAPS_AirTemp_IsbL-0925_RLatLon0.03_PT036H.grib2 2026-05-02 06:16 1.2M
20260502T00Z_MSC_CAPS_AirTemp_IsbL-0950_RLatLon0.03_PT036H.grib2 2026-05-02 06:16 1.0M
20260502T00Z_MSC_CAPS_AirTemp_IsbL-0970_RLatLon0.03_PT036H.grib2 2026-05-02 06:16 1.1M
20260502T00Z_MSC_CAPS_AirTemp_IsbL-0985_RLatLon0.03_PT036H.grib2 2026-05-02 06:16 1.0M
20260502T00Z_MSC_CAPS_AirTemp_IsbL-1000_RLatLon0.03_PT036H.grib2 2026-05-02 06:16 1.0M
20260502T00Z_MSC_CAPS_AirTemp_IsbL-1015_RLatLon0.03_PT036H.grib2 2026-05-02 06:16 836K
20260502T00Z_MSC_CAPS_Albedo_Sfc_RLatLon0.03_PT036H.grib2 2026-05-02 06:16 2.7M
20260502T00Z_MSC_CAPS_CAPE_Sfc_RLatLon0.03_PT036H.grib2 2026-05-02 06:16 187K
20260502T00Z_MSC_CAPS_CloudWater_EAtm_RLatLon0.03_PT036H.grib2 2026-05-02 06:16 1.5M
20260502T00Z_MSC_CAPS_ConvectivePrecip-Accum_Sfc_RLatLon0.03_PT036H.grib2 2026-05-02 06:16 4.2M
20260502T00Z_MSC_CAPS_DewPointDepression_AGL-120m_RLatLon0.03_PT036H.grib2 2026-05-02 06:16 2.0M
20260502T00Z_MSC_CAPS_DewPointDepression_AGL-2m_RLatLon0.03_PT036H.grib2 2026-05-02 06:16 2.1M
20260502T00Z_MSC_CAPS_DewPointDepression_AGL-40m_RLatLon0.03_PT036H.grib2 2026-05-02 06:16 2.0M
20260502T00Z_MSC_CAPS_DewPointDepression_AGL-80m_RLatLon0.03_PT036H.grib2 2026-05-02 06:16 2.0M
20260502T00Z_MSC_CAPS_DewPointDepression_IsbL-0050_RLatLon0.03_PT036H.grib2 2026-05-02 06:16 16K
20260502T00Z_MSC_CAPS_DewPointDepression_IsbL-0100_RLatLon0.03_PT036H.grib2 2026-05-02 06:16 99K
20260502T00Z_MSC_CAPS_DewPointDepression_IsbL-0150_RLatLon0.03_PT036H.grib2 2026-05-02 06:16 91K
20260502T00Z_MSC_CAPS_DewPointDepression_IsbL-0175_RLatLon0.03_PT036H.grib2 2026-05-02 06:16 237K
20260502T00Z_MSC_CAPS_DewPointDepression_IsbL-0200_RLatLon0.03_PT036H.grib2 2026-05-02 06:16 388K
20260502T00Z_MSC_CAPS_DewPointDepression_IsbL-0225_RLatLon0.03_PT036H.grib2 2026-05-02 06:16 651K
20260502T00Z_MSC_CAPS_DewPointDepression_IsbL-0250_RLatLon0.03_PT036H.grib2 2026-05-02 06:16 851K
20260502T00Z_MSC_CAPS_DewPointDepression_IsbL-0275_RLatLon0.03_PT036H.grib2 2026-05-02 06:16 1.0M
20260502T00Z_MSC_CAPS_DewPointDepression_IsbL-0300_RLatLon0.03_PT036H.grib2 2026-05-02 06:16 1.1M
20260502T00Z_MSC_CAPS_DewPointDepression_IsbL-0350_RLatLon0.03_PT036H.grib2 2026-05-02 06:16 1.1M
20260502T00Z_MSC_CAPS_DewPointDepression_IsbL-0400_RLatLon0.03_PT036H.grib2 2026-05-02 06:16 1.1M
20260502T00Z_MSC_CAPS_DewPointDepression_IsbL-0450_RLatLon0.03_PT036H.grib2 2026-05-02 06:16 1.1M
20260502T00Z_MSC_CAPS_DewPointDepression_IsbL-0500_RLatLon0.03_PT036H.grib2 2026-05-02 06:16 1.2M
20260502T00Z_MSC_CAPS_DewPointDepression_IsbL-0550_RLatLon0.03_PT036H.grib2 2026-05-02 06:16 1.2M
20260502T00Z_MSC_CAPS_DewPointDepression_IsbL-0600_RLatLon0.03_PT036H.grib2 2026-05-02 06:16 1.3M
20260502T00Z_MSC_CAPS_DewPointDepression_IsbL-0650_RLatLon0.03_PT036H.grib2 2026-05-02 06:16 1.3M
20260502T00Z_MSC_CAPS_DewPointDepression_IsbL-0700_RLatLon0.03_PT036H.grib2 2026-05-02 06:16 1.3M
20260502T00Z_MSC_CAPS_DewPointDepression_IsbL-0750_RLatLon0.03_PT036H.grib2 2026-05-02 06:16 1.4M
20260502T00Z_MSC_CAPS_DewPointDepression_IsbL-0800_RLatLon0.03_PT036H.grib2 2026-05-02 06:16 1.4M
20260502T00Z_MSC_CAPS_DewPointDepression_IsbL-0850_RLatLon0.03_PT036H.grib2 2026-05-02 06:16 1.4M
20260502T00Z_MSC_CAPS_DewPointDepression_IsbL-0875_RLatLon0.03_PT036H.grib2 2026-05-02 06:16 1.4M
20260502T00Z_MSC_CAPS_DewPointDepression_IsbL-0900_RLatLon0.03_PT036H.grib2 2026-05-02 06:16 1.4M
20260502T00Z_MSC_CAPS_DewPointDepression_IsbL-0925_RLatLon0.03_PT036H.grib2 2026-05-02 06:16 1.4M
20260502T00Z_MSC_CAPS_DewPointDepression_IsbL-0950_RLatLon0.03_PT036H.grib2 2026-05-02 06:16 1.3M
20260502T00Z_MSC_CAPS_DewPointDepression_IsbL-0970_RLatLon0.03_PT036H.grib2 2026-05-02 06:16 1.3M
20260502T00Z_MSC_CAPS_DewPointDepression_IsbL-0985_RLatLon0.03_PT036H.grib2 2026-05-02 06:16 1.3M
20260502T00Z_MSC_CAPS_DewPointDepression_IsbL-1000_RLatLon0.03_PT036H.grib2 2026-05-02 06:16 1.3M
20260502T00Z_MSC_CAPS_DewPointDepression_IsbL-1015_RLatLon0.03_PT036H.grib2 2026-05-02 06:16 1.3M
20260502T00Z_MSC_CAPS_DewPoint_AGL-120m_RLatLon0.03_PT036H.grib2 2026-05-02 06:16 3.6M
20260502T00Z_MSC_CAPS_DewPoint_AGL-2m_RLatLon0.03_PT036H.grib2 2026-05-02 06:16 1.7M
20260502T00Z_MSC_CAPS_DewPoint_AGL-40m_RLatLon0.03_PT036H.grib2 2026-05-02 06:16 3.7M
20260502T00Z_MSC_CAPS_DewPoint_AGL-80m_RLatLon0.03_PT036H.grib2 2026-05-02 06:16 3.6M
20260502T00Z_MSC_CAPS_DownwardLongwaveRadiationFlux-Accum_Sfc_RLatLon0.03_PT036H.grib2 2026-05-02 06:16 2.5M
20260502T00Z_MSC_CAPS_DownwardShortwaveRadiationFlux-Accum_NTAtm_RLatLon0.03_PT036H.grib2 2026-05-02 06:16 498K
20260502T00Z_MSC_CAPS_DownwardShortwaveRadiationFlux-Accum_Sfc_RLatLon0.03_PT036H.grib2 2026-05-02 06:16 2.8M
20260502T00Z_MSC_CAPS_FreezingRain-Accum_Sfc_RLatLon0.03_PT036H.grib2 2026-05-02 06:16 1.1M
20260502T00Z_MSC_CAPS_GeopotentialHeight_IsbL-0050_RLatLon0.03_PT036H.grib2 2026-05-02 06:16 639K
20260502T00Z_MSC_CAPS_GeopotentialHeight_IsbL-0100_RLatLon0.03_PT036H.grib2 2026-05-02 06:16 765K
20260502T00Z_MSC_CAPS_GeopotentialHeight_IsbL-0150_RLatLon0.03_PT036H.grib2 2026-05-02 06:16 726K
20260502T00Z_MSC_CAPS_GeopotentialHeight_IsbL-0175_RLatLon0.03_PT036H.grib2 2026-05-02 06:16 735K
20260502T00Z_MSC_CAPS_GeopotentialHeight_IsbL-0200_RLatLon0.03_PT036H.grib2 2026-05-02 06:16 747K
20260502T00Z_MSC_CAPS_GeopotentialHeight_IsbL-0225_RLatLon0.03_PT036H.grib2 2026-05-02 06:16 755K
20260502T00Z_MSC_CAPS_GeopotentialHeight_IsbL-0250_RLatLon0.03_PT036H.grib2 2026-05-02 06:16 765K
20260502T00Z_MSC_CAPS_GeopotentialHeight_IsbL-0275_RLatLon0.03_PT036H.grib2 2026-05-02 06:16 775K
20260502T00Z_MSC_CAPS_GeopotentialHeight_IsbL-0300_RLatLon0.03_PT036H.grib2 2026-05-02 06:16 780K
20260502T00Z_MSC_CAPS_GeopotentialHeight_IsbL-0350_RLatLon0.03_PT036H.grib2 2026-05-02 06:16 779K
20260502T00Z_MSC_CAPS_GeopotentialHeight_IsbL-0400_RLatLon0.03_PT036H.grib2 2026-05-02 06:16 776K
20260502T00Z_MSC_CAPS_GeopotentialHeight_IsbL-0450_RLatLon0.03_PT036H.grib2 2026-05-02 06:16 766K
20260502T00Z_MSC_CAPS_GeopotentialHeight_IsbL-0500_RLatLon0.03_PT036H.grib2 2026-05-02 06:16 757K
20260502T00Z_MSC_CAPS_GeopotentialHeight_IsbL-0550_RLatLon0.03_PT036H.grib2 2026-05-02 06:16 747K
20260502T00Z_MSC_CAPS_GeopotentialHeight_IsbL-0600_RLatLon0.03_PT036H.grib2 2026-05-02 06:16 732K
20260502T00Z_MSC_CAPS_GeopotentialHeight_IsbL-0650_RLatLon0.03_PT036H.grib2 2026-05-02 06:16 629K
20260502T00Z_MSC_CAPS_GeopotentialHeight_IsbL-0700_RLatLon0.03_PT036H.grib2 2026-05-02 06:16 632K
20260502T00Z_MSC_CAPS_GeopotentialHeight_IsbL-0750_RLatLon0.03_PT036H.grib2 2026-05-02 06:16 636K
20260502T00Z_MSC_CAPS_GeopotentialHeight_IsbL-0800_RLatLon0.03_PT036H.grib2 2026-05-02 06:16 822K
20260502T00Z_MSC_CAPS_GeopotentialHeight_IsbL-0850_RLatLon0.03_PT036H.grib2 2026-05-02 06:16 832K
20260502T00Z_MSC_CAPS_GeopotentialHeight_IsbL-0875_RLatLon0.03_PT036H.grib2 2026-05-02 06:16 838K
20260502T00Z_MSC_CAPS_GeopotentialHeight_IsbL-0900_RLatLon0.03_PT036H.grib2 2026-05-02 06:16 840K
20260502T00Z_MSC_CAPS_GeopotentialHeight_IsbL-0925_RLatLon0.03_PT036H.grib2 2026-05-02 06:16 837K
20260502T00Z_MSC_CAPS_GeopotentialHeight_IsbL-0950_RLatLon0.03_PT036H.grib2 2026-05-02 06:16 853K
20260502T00Z_MSC_CAPS_GeopotentialHeight_IsbL-0970_RLatLon0.03_PT036H.grib2 2026-05-02 06:16 871K
20260502T00Z_MSC_CAPS_GeopotentialHeight_IsbL-0985_RLatLon0.03_PT036H.grib2 2026-05-02 06:16 878K
20260502T00Z_MSC_CAPS_GeopotentialHeight_IsbL-1000_RLatLon0.03_PT036H.grib2 2026-05-02 06:16 885K
20260502T00Z_MSC_CAPS_GeopotentialHeight_IsbL-1015_RLatLon0.03_PT036H.grib2 2026-05-02 06:16 896K
20260502T00Z_MSC_CAPS_GeopotentialHeight_Sfc_RLatLon0.03_PT036H.grib2 2026-05-02 06:16 1.0M
20260502T00Z_MSC_CAPS_IcePellets-Accum_Sfc_RLatLon0.03_PT036H.grib2 2026-05-02 06:16 85K
20260502T00Z_MSC_CAPS_LatentHeatNetFlux_Sfc_RLatLon0.03_PT036H.grib2 2026-05-02 06:16 1.8M
20260502T00Z_MSC_CAPS_LiftedIndex-MU-VT_IsbL-0500_RLatLon0.03_PT036H.grib2 2026-05-02 06:16 3.3M
20260502T00Z_MSC_CAPS_MixedLayerThickness_Sfc_RLatLon0.03_PT036H.nc 2026-05-02 06:12 16M
20260502T00Z_MSC_CAPS_NetLongwaveRadiationFlux-Accum_Sfc_RLatLon0.03_PT036H.grib2 2026-05-02 06:16 2.7M
20260502T00Z_MSC_CAPS_NetShortwaveRadiationFlux-Accum_Sfc_RLatLon0.03_PT036H.grib2 2026-05-02 06:16 2.7M
20260502T00Z_MSC_CAPS_PlanetaryBoundaryLayerHeight_Sfc_RLatLon0.03_PT036H.grib2 2026-05-02 06:16 2.8M
20260502T00Z_MSC_CAPS_Precip-Accum_Sfc_RLatLon0.03_PT036H.grib2 2026-05-02 06:16 5.2M
20260502T00Z_MSC_CAPS_PrecipRate_Sfc_RLatLon0.03_PT036H.grib2 2026-05-02 06:16 588K
20260502T00Z_MSC_CAPS_PrecipType-Instant_Sfc_RLatLon0.03_PT036H.grib2 2026-05-02 06:16 1.9M
20260502T00Z_MSC_CAPS_Pressure_MSL_RLatLon0.03_PT036H.grib2 2026-05-02 06:16 922K
20260502T00Z_MSC_CAPS_Pressure_Sfc_RLatLon0.03_PT036H.grib2 2026-05-02 06:16 1.2M
20260502T00Z_MSC_CAPS_RadiativeTemp_Sfc_RLatLon0.03_PT036H.grib2 2026-05-02 06:16 2.1M
20260502T00Z_MSC_CAPS_Rain-Accum_Sfc_RLatLon0.03_PT036H.grib2 2026-05-02 06:16 2.7M
20260502T00Z_MSC_CAPS_RelativeHumidity_AGL-120m_RLatLon0.03_PT036H.grib2 2026-05-02 06:16 2.8M
20260502T00Z_MSC_CAPS_RelativeHumidity_AGL-2m_RLatLon0.03_PT036H.grib2 2026-05-02 06:16 2.9M
20260502T00Z_MSC_CAPS_RelativeHumidity_AGL-40m_RLatLon0.03_PT036H.grib2 2026-05-02 06:16 2.8M
20260502T00Z_MSC_CAPS_RelativeHumidity_AGL-80m_RLatLon0.03_PT036H.grib2 2026-05-02 06:16 2.8M
20260502T00Z_MSC_CAPS_RelativeHumidity_IsbL-0050_RLatLon0.03_PT036H.grib2 2026-05-02 06:16 734K
20260502T00Z_MSC_CAPS_RelativeHumidity_IsbL-0100_RLatLon0.03_PT036H.grib2 2026-05-02 06:16 873K
20260502T00Z_MSC_CAPS_RelativeHumidity_IsbL-0150_RLatLon0.03_PT036H.grib2 2026-05-02 06:16 496K
20260502T00Z_MSC_CAPS_RelativeHumidity_IsbL-0175_RLatLon0.03_PT036H.grib2 2026-05-02 06:16 483K
20260502T00Z_MSC_CAPS_RelativeHumidity_IsbL-0200_RLatLon0.03_PT036H.grib2 2026-05-02 06:16 682K
20260502T00Z_MSC_CAPS_RelativeHumidity_IsbL-0225_RLatLon0.03_PT036H.grib2 2026-05-02 06:16 889K
20260502T00Z_MSC_CAPS_RelativeHumidity_IsbL-0250_RLatLon0.03_PT036H.grib2 2026-05-02 06:16 1.1M
20260502T00Z_MSC_CAPS_RelativeHumidity_IsbL-0275_RLatLon0.03_PT036H.grib2 2026-05-02 06:16 1.4M
20260502T00Z_MSC_CAPS_RelativeHumidity_IsbL-0300_RLatLon0.03_PT036H.grib2 2026-05-02 06:16 1.5M
20260502T00Z_MSC_CAPS_RelativeHumidity_IsbL-0350_RLatLon0.03_PT036H.grib2 2026-05-02 06:16 1.8M
20260502T00Z_MSC_CAPS_RelativeHumidity_IsbL-0400_RLatLon0.03_PT036H.grib2 2026-05-02 06:16 1.9M
20260502T00Z_MSC_CAPS_RelativeHumidity_IsbL-0450_RLatLon0.03_PT036H.grib2 2026-05-02 06:16 2.0M
20260502T00Z_MSC_CAPS_RelativeHumidity_IsbL-0500_RLatLon0.03_PT036H.grib2 2026-05-02 06:16 2.2M
20260502T00Z_MSC_CAPS_RelativeHumidity_IsbL-0550_RLatLon0.03_PT036H.grib2 2026-05-02 06:16 2.2M
20260502T00Z_MSC_CAPS_RelativeHumidity_IsbL-0600_RLatLon0.03_PT036H.grib2 2026-05-02 06:16 2.2M
20260502T00Z_MSC_CAPS_RelativeHumidity_IsbL-0650_RLatLon0.03_PT036H.grib2 2026-05-02 06:16 2.3M
20260502T00Z_MSC_CAPS_RelativeHumidity_IsbL-0700_RLatLon0.03_PT036H.grib2 2026-05-02 06:16 2.4M
20260502T00Z_MSC_CAPS_RelativeHumidity_IsbL-0750_RLatLon0.03_PT036H.grib2 2026-05-02 06:16 2.4M
20260502T00Z_MSC_CAPS_RelativeHumidity_IsbL-0800_RLatLon0.03_PT036H.grib2 2026-05-02 06:16 2.5M
20260502T00Z_MSC_CAPS_RelativeHumidity_IsbL-0850_RLatLon0.03_PT036H.grib2 2026-05-02 06:16 2.5M
20260502T00Z_MSC_CAPS_RelativeHumidity_IsbL-0875_RLatLon0.03_PT036H.grib2 2026-05-02 06:16 2.5M
20260502T00Z_MSC_CAPS_RelativeHumidity_IsbL-0900_RLatLon0.03_PT036H.grib2 2026-05-02 06:16 2.6M
20260502T00Z_MSC_CAPS_RelativeHumidity_IsbL-0925_RLatLon0.03_PT036H.grib2 2026-05-02 06:16 2.7M
20260502T00Z_MSC_CAPS_RelativeHumidity_IsbL-0950_RLatLon0.03_PT036H.grib2 2026-05-02 06:16 2.7M
20260502T00Z_MSC_CAPS_RelativeHumidity_IsbL-0970_RLatLon0.03_PT036H.grib2 2026-05-02 06:16 2.8M
20260502T00Z_MSC_CAPS_RelativeHumidity_IsbL-0985_RLatLon0.03_PT036H.grib2 2026-05-02 06:16 2.8M
20260502T00Z_MSC_CAPS_RelativeHumidity_IsbL-1000_RLatLon0.03_PT036H.grib2 2026-05-02 06:16 2.8M
20260502T00Z_MSC_CAPS_RelativeHumidity_IsbL-1015_RLatLon0.03_PT036H.grib2 2026-05-02 06:16 2.9M
20260502T00Z_MSC_CAPS_Runoff-Accum_Sfc_RLatLon0.03_PT036H.grib2 2026-05-02 06:16 400K
20260502T00Z_MSC_CAPS_SeaIceAreaFraction_Sfc_RLatLon0.03_PT036H.nc 2026-05-02 06:12 15M
20260502T00Z_MSC_CAPS_SeaIceCompressiveStrength_Sfc_RLatLon0.03_PT036H.nc 2026-05-02 06:12 15M
20260502T00Z_MSC_CAPS_SeaIceDivergence_Sfc_RLatLon0.03_PT036H.nc 2026-05-02 06:12 15M
20260502T00Z_MSC_CAPS_SeaIceInternalPressure_Sfc_RLatLon0.03_PT036H.nc 2026-05-02 06:12 15M
20260502T00Z_MSC_CAPS_SeaIceShear_Sfc_RLatLon0.03_PT036H.nc 2026-05-02 06:12 14M
20260502T00Z_MSC_CAPS_SeaIceSnowTemp_Sfc_RLatLon0.03_PT036H.nc 2026-05-02 06:12 14M
20260502T00Z_MSC_CAPS_SeaIceSnowVolume_Sfc_RLatLon0.03_PT036H.nc 2026-05-02 06:12 15M
20260502T00Z_MSC_CAPS_SeaIceVelocityX_Sfc_RLatLon0.03_PT036H.nc 2026-05-02 06:12 15M
20260502T00Z_MSC_CAPS_SeaIceVelocityY_Sfc_RLatLon0.03_PT036H.nc 2026-05-02 06:12 15M
20260502T00Z_MSC_CAPS_SeaIceVolume_Sfc_RLatLon0.03_PT036H.nc 2026-05-02 06:12 15M
20260502T00Z_MSC_CAPS_SeaSurfaceHeight_Sfc_RLatLon0.03_PT036H.nc 2026-05-02 06:12 16M
20260502T00Z_MSC_CAPS_SeaWaterSalinity_DBS-0.5m_RLatLon0.03_PT036H.nc 2026-05-02 06:12 16M
20260502T00Z_MSC_CAPS_SeaWaterSalinity_DBS-all_RLatLon0.03_PT036H.nc 2026-05-02 06:12 107M
20260502T00Z_MSC_CAPS_SeaWaterTemp_DBS-0.5m_RLatLon0.03_PT036H.nc 2026-05-02 06:12 14M
20260502T00Z_MSC_CAPS_SeaWaterTemp_DBS-all_RLatLon0.03_PT036H.nc 2026-05-02 06:12 88M
20260502T00Z_MSC_CAPS_SeaWaterVelocityX_DBS-0.5m_RLatLon0.03_PT036H.nc 2026-05-02 06:12 17M
20260502T00Z_MSC_CAPS_SeaWaterVelocityX_DBS-all_RLatLon0.03_PT036H.nc 2026-05-02 06:12 199M
20260502T00Z_MSC_CAPS_SeaWaterVelocityY_DBS-0.5m_RLatLon0.03_PT036H.nc 2026-05-02 06:12 17M
20260502T00Z_MSC_CAPS_SeaWaterVelocityY_DBS-all_RLatLon0.03_PT036H.nc 2026-05-02 06:12 210M
20260502T00Z_MSC_CAPS_SensibleHeatNetFlux_Sfc_RLatLon0.03_PT036H.grib2 2026-05-02 06:16 2.0M
20260502T00Z_MSC_CAPS_ShowalterIndex_IsbL-0500_RLatLon0.03_PT036H.grib2 2026-05-02 06:16 4.3M
20260502T00Z_MSC_CAPS_Snow-Accum_Sfc_RLatLon0.03_PT036H.grib2 2026-05-02 06:16 4.1M
20260502T00Z_MSC_CAPS_SnowDensity_Sfc_RLatLon0.03_PT036H.grib2 2026-05-02 06:16 1.3M
20260502T00Z_MSC_CAPS_SnowDepthWaterEquivalent_Sfc_RLatLon0.03_PT036H.grib2 2026-05-02 06:16 670K
20260502T00Z_MSC_CAPS_SnowDepth_Sfc_RLatLon0.03_PT036H.grib2 2026-05-02 06:16 1.2M
20260502T00Z_MSC_CAPS_SoilTemp_DBS-0to10cm_RLatLon0.03_PT036H.grib2 2026-05-02 06:16 1.6M
20260502T00Z_MSC_CAPS_SoilTemp_Sfc_RLatLon0.03_PT036H.grib2 2026-05-02 06:16 1.8M
20260502T00Z_MSC_CAPS_SoilVolumetricIceContent_Sfc_RLatLon0.03_PT036H.grib2 2026-05-02 06:16 1.4M
20260502T00Z_MSC_CAPS_SoilVolumetricWaterContent_DBS-0to10cm_RLatLon0.03_PT036H.grib2 2026-05-02 06:16 1.3M
20260502T00Z_MSC_CAPS_SoilVolumetricWaterContent_DBS-0to1cm_RLatLon0.03_PT036H.grib2 2026-05-02 06:16 1.7M
20260502T00Z_MSC_CAPS_SpecificHumidity_AGL-120m_RLatLon0.03_PT036H.grib2 2026-05-02 06:16 1.8M
20260502T00Z_MSC_CAPS_SpecificHumidity_AGL-2m_RLatLon0.03_PT036H.grib2 2026-05-02 06:16 1.7M
20260502T00Z_MSC_CAPS_SpecificHumidity_AGL-40m_RLatLon0.03_PT036H.grib2 2026-05-02 06:16 1.8M
20260502T00Z_MSC_CAPS_SpecificHumidity_AGL-80m_RLatLon0.03_PT036H.grib2 2026-05-02 06:16 1.8M
20260502T00Z_MSC_CAPS_SpecificHumidity_IsbL-0050_RLatLon0.03_PT036H.grib2 2026-05-02 06:16 915K
20260502T00Z_MSC_CAPS_SpecificHumidity_IsbL-0100_RLatLon0.03_PT036H.grib2 2026-05-02 06:16 1.0M
20260502T00Z_MSC_CAPS_SpecificHumidity_IsbL-0150_RLatLon0.03_PT036H.grib2 2026-05-02 06:16 771K
20260502T00Z_MSC_CAPS_SpecificHumidity_IsbL-0175_RLatLon0.03_PT036H.grib2 2026-05-02 06:16 1.0M
20260502T00Z_MSC_CAPS_SpecificHumidity_IsbL-0200_RLatLon0.03_PT036H.grib2 2026-05-02 06:16 1.0M
20260502T00Z_MSC_CAPS_SpecificHumidity_IsbL-0225_RLatLon0.03_PT036H.grib2 2026-05-02 06:16 1.1M
20260502T00Z_MSC_CAPS_SpecificHumidity_IsbL-0250_RLatLon0.03_PT036H.grib2 2026-05-02 06:16 1.1M
20260502T00Z_MSC_CAPS_SpecificHumidity_IsbL-0275_RLatLon0.03_PT036H.grib2 2026-05-02 06:16 1.1M
20260502T00Z_MSC_CAPS_SpecificHumidity_IsbL-0300_RLatLon0.03_PT036H.grib2 2026-05-02 06:16 1.0M
20260502T00Z_MSC_CAPS_SpecificHumidity_IsbL-0350_RLatLon0.03_PT036H.grib2 2026-05-02 06:16 1.2M
20260502T00Z_MSC_CAPS_SpecificHumidity_IsbL-0400_RLatLon0.03_PT036H.grib2 2026-05-02 06:16 1.1M
20260502T00Z_MSC_CAPS_SpecificHumidity_IsbL-0450_RLatLon0.03_PT036H.grib2 2026-05-02 06:16 1.1M
20260502T00Z_MSC_CAPS_SpecificHumidity_IsbL-0500_RLatLon0.03_PT036H.grib2 2026-05-02 06:16 1.4M
20260502T00Z_MSC_CAPS_SpecificHumidity_IsbL-0550_RLatLon0.03_PT036H.grib2 2026-05-02 06:16 1.2M
20260502T00Z_MSC_CAPS_SpecificHumidity_IsbL-0600_RLatLon0.03_PT036H.grib2 2026-05-02 06:16 1.4M
20260502T00Z_MSC_CAPS_SpecificHumidity_IsbL-0650_RLatLon0.03_PT036H.grib2 2026-05-02 06:16 1.5M
20260502T00Z_MSC_CAPS_SpecificHumidity_IsbL-0700_RLatLon0.03_PT036H.grib2 2026-05-02 06:16 1.7M
20260502T00Z_MSC_CAPS_SpecificHumidity_IsbL-0750_RLatLon0.03_PT036H.grib2 2026-05-02 06:16 1.4M
20260502T00Z_MSC_CAPS_SpecificHumidity_IsbL-0800_RLatLon0.03_PT036H.grib2 2026-05-02 06:16 1.5M
20260502T00Z_MSC_CAPS_SpecificHumidity_IsbL-0850_RLatLon0.03_PT036H.grib2 2026-05-02 06:16 1.7M
20260502T00Z_MSC_CAPS_SpecificHumidity_IsbL-0875_RLatLon0.03_PT036H.grib2 2026-05-02 06:16 1.7M
20260502T00Z_MSC_CAPS_SpecificHumidity_IsbL-0900_RLatLon0.03_PT036H.grib2 2026-05-02 06:16 1.8M
20260502T00Z_MSC_CAPS_SpecificHumidity_IsbL-0925_RLatLon0.03_PT036H.grib2 2026-05-02 06:16 1.9M
20260502T00Z_MSC_CAPS_SpecificHumidity_IsbL-0950_RLatLon0.03_PT036H.grib2 2026-05-02 06:16 1.9M
20260502T00Z_MSC_CAPS_SpecificHumidity_IsbL-0970_RLatLon0.03_PT036H.grib2 2026-05-02 06:16 2.0M
20260502T00Z_MSC_CAPS_SpecificHumidity_IsbL-0985_RLatLon0.03_PT036H.grib2 2026-05-02 06:16 2.0M
20260502T00Z_MSC_CAPS_SpecificHumidity_IsbL-1000_RLatLon0.03_PT036H.grib2 2026-05-02 06:16 2.1M
20260502T00Z_MSC_CAPS_SpecificHumidity_IsbL-1015_RLatLon0.03_PT036H.grib2 2026-05-02 06:16 1.7M
20260502T00Z_MSC_CAPS_SpecificHumidity_Sfc_RLatLon0.03_PT036H.grib2 2026-05-02 06:16 2.0M
20260502T00Z_MSC_CAPS_StormRelativeHelicity_Sfc_RLatLon0.03_PT036H.grib2 2026-05-02 06:16 3.2M
20260502T00Z_MSC_CAPS_Thickness_IsbL-1000to0500_RLatLon0.03_PT036H.grib2 2026-05-02 06:16 477K
20260502T00Z_MSC_CAPS_TotalCloudCover_Sfc_RLatLon0.03_PT036H.grib2 2026-05-02 06:16 3.7M
20260502T00Z_MSC_CAPS_TurboclineDepth_Sfc_RLatLon0.03_PT036H.nc 2026-05-02 06:12 16M
20260502T00Z_MSC_CAPS_UpwardLongwaveRadiationFlux_NTAtm_RLatLon0.03_PT036H.grib2 2026-05-02 06:16 2.9M
20260502T00Z_MSC_CAPS_UpwardShortwaveRadiationFlux_NTAtm_RLatLon0.03_PT036H.grib2 2026-05-02 06:16 2.1M
20260502T00Z_MSC_CAPS_VerticalVelocity_IsbL-0250_RLatLon0.03_PT036H.grib2 2026-05-02 06:16 915K
20260502T00Z_MSC_CAPS_VerticalVelocity_IsbL-0500_RLatLon0.03_PT036H.grib2 2026-05-02 06:16 1.1M
20260502T00Z_MSC_CAPS_VerticalVelocity_IsbL-0700_RLatLon0.03_PT036H.grib2 2026-05-02 06:16 1.2M
20260502T00Z_MSC_CAPS_VerticalVelocity_IsbL-0850_RLatLon0.03_PT036H.grib2 2026-05-02 06:16 1.4M
20260502T00Z_MSC_CAPS_VerticalVelocity_IsbL-1000_RLatLon0.03_PT036H.grib2 2026-05-02 06:16 1.1M
20260502T00Z_MSC_CAPS_WindDir_AGL-10m_RLatLon0.03_PT036H.grib2 2026-05-02 06:16 2.3M
20260502T00Z_MSC_CAPS_WindDir_AGL-120m_RLatLon0.03_PT036H.grib2 2026-05-02 06:16 1.2M
20260502T00Z_MSC_CAPS_WindDir_AGL-40m_RLatLon0.03_PT036H.grib2 2026-05-02 06:16 1.3M
20260502T00Z_MSC_CAPS_WindDir_AGL-80m_RLatLon0.03_PT036H.grib2 2026-05-02 06:16 1.2M
20260502T00Z_MSC_CAPS_WindDir_IsbL-0050_RLatLon0.03_PT036H.grib2 2026-05-02 06:16 1.0M
20260502T00Z_MSC_CAPS_WindDir_IsbL-0100_RLatLon0.03_PT036H.grib2 2026-05-02 06:16 1.1M
20260502T00Z_MSC_CAPS_WindDir_IsbL-0150_RLatLon0.03_PT036H.grib2 2026-05-02 06:16 1.0M
20260502T00Z_MSC_CAPS_WindDir_IsbL-0175_RLatLon0.03_PT036H.grib2 2026-05-02 06:16 1.1M
20260502T00Z_MSC_CAPS_WindDir_IsbL-0200_RLatLon0.03_PT036H.grib2 2026-05-02 06:16 1.1M
20260502T00Z_MSC_CAPS_WindDir_IsbL-0225_RLatLon0.03_PT036H.grib2 2026-05-02 06:16 1.1M
20260502T00Z_MSC_CAPS_WindDir_IsbL-0250_RLatLon0.03_PT036H.grib2 2026-05-02 06:16 1.1M
20260502T00Z_MSC_CAPS_WindDir_IsbL-0275_RLatLon0.03_PT036H.grib2 2026-05-02 06:16 1.1M
20260502T00Z_MSC_CAPS_WindDir_IsbL-0300_RLatLon0.03_PT036H.grib2 2026-05-02 06:16 1.1M
20260502T00Z_MSC_CAPS_WindDir_IsbL-0350_RLatLon0.03_PT036H.grib2 2026-05-02 06:16 1.1M
20260502T00Z_MSC_CAPS_WindDir_IsbL-0400_RLatLon0.03_PT036H.grib2 2026-05-02 06:16 1.1M
20260502T00Z_MSC_CAPS_WindDir_IsbL-0450_RLatLon0.03_PT036H.grib2 2026-05-02 06:16 1.2M
20260502T00Z_MSC_CAPS_WindDir_IsbL-0500_RLatLon0.03_PT036H.grib2 2026-05-02 06:16 1.3M
20260502T00Z_MSC_CAPS_WindDir_IsbL-0550_RLatLon0.03_PT036H.grib2 2026-05-02 06:16 1.3M
20260502T00Z_MSC_CAPS_WindDir_IsbL-0600_RLatLon0.03_PT036H.grib2 2026-05-02 06:16 1.3M
20260502T00Z_MSC_CAPS_WindDir_IsbL-0650_RLatLon0.03_PT036H.grib2 2026-05-02 06:16 1.3M
20260502T00Z_MSC_CAPS_WindDir_IsbL-0700_RLatLon0.03_PT036H.grib2 2026-05-02 06:16 1.4M
20260502T00Z_MSC_CAPS_WindDir_IsbL-0750_RLatLon0.03_PT036H.grib2 2026-05-02 06:16 1.5M
20260502T00Z_MSC_CAPS_WindDir_IsbL-0800_RLatLon0.03_PT036H.grib2 2026-05-02 06:16 1.6M
20260502T00Z_MSC_CAPS_WindDir_IsbL-0850_RLatLon0.03_PT036H.grib2 2026-05-02 06:16 1.7M
20260502T00Z_MSC_CAPS_WindDir_IsbL-0875_RLatLon0.03_PT036H.grib2 2026-05-02 06:16 1.8M
20260502T00Z_MSC_CAPS_WindDir_IsbL-0900_RLatLon0.03_PT036H.grib2 2026-05-02 06:16 1.9M
20260502T00Z_MSC_CAPS_WindDir_IsbL-0925_RLatLon0.03_PT036H.grib2 2026-05-02 06:16 1.9M
20260502T00Z_MSC_CAPS_WindDir_IsbL-0950_RLatLon0.03_PT036H.grib2 2026-05-02 06:16 2.0M
20260502T00Z_MSC_CAPS_WindDir_IsbL-0970_RLatLon0.03_PT036H.grib2 2026-05-02 06:16 2.1M
20260502T00Z_MSC_CAPS_WindDir_IsbL-0985_RLatLon0.03_PT036H.grib2 2026-05-02 06:16 2.1M
20260502T00Z_MSC_CAPS_WindDir_IsbL-1000_RLatLon0.03_PT036H.grib2 2026-05-02 06:16 2.2M
20260502T00Z_MSC_CAPS_WindDir_IsbL-1015_RLatLon0.03_PT036H.grib2 2026-05-02 06:16 2.3M
20260502T00Z_MSC_CAPS_WindGust-Max_AGL-10m_RLatLon0.03_PT036H.grib2 2026-05-02 06:16 2.5M
20260502T00Z_MSC_CAPS_WindGust-Min_AGL-10m_RLatLon0.03_PT036H.grib2 2026-05-02 06:16 2.4M
20260502T00Z_MSC_CAPS_WindGust_AGL-10m_RLatLon0.03_PT036H.grib2 2026-05-02 06:16 2.5M
20260502T00Z_MSC_CAPS_WindSpeed_AGL-10m_RLatLon0.03_PT036H.grib2 2026-05-02 06:16 2.1M
20260502T00Z_MSC_CAPS_WindSpeed_AGL-120m_RLatLon0.03_PT036H.grib2 2026-05-02 06:16 1.1M
20260502T00Z_MSC_CAPS_WindSpeed_AGL-40m_RLatLon0.03_PT036H.grib2 2026-05-02 06:16 1.2M
20260502T00Z_MSC_CAPS_WindSpeed_AGL-80m_RLatLon0.03_PT036H.grib2 2026-05-02 06:16 1.2M
20260502T00Z_MSC_CAPS_WindSpeed_IsbL-0050_RLatLon0.03_PT036H.grib2 2026-05-02 06:16 934K
20260502T00Z_MSC_CAPS_WindSpeed_IsbL-0100_RLatLon0.03_PT036H.grib2 2026-05-02 06:16 1.0M
20260502T00Z_MSC_CAPS_WindSpeed_IsbL-0150_RLatLon0.03_PT036H.grib2 2026-05-02 06:16 1.1M
20260502T00Z_MSC_CAPS_WindSpeed_IsbL-0175_RLatLon0.03_PT036H.grib2 2026-05-02 06:16 1.2M
20260502T00Z_MSC_CAPS_WindSpeed_IsbL-0200_RLatLon0.03_PT036H.grib2 2026-05-02 06:16 940K
20260502T00Z_MSC_CAPS_WindSpeed_IsbL-0225_RLatLon0.03_PT036H.grib2 2026-05-02 06:16 956K
20260502T00Z_MSC_CAPS_WindSpeed_IsbL-0250_RLatLon0.03_PT036H.grib2 2026-05-02 06:16 971K
20260502T00Z_MSC_CAPS_WindSpeed_IsbL-0275_RLatLon0.03_PT036H.grib2 2026-05-02 06:16 1.0M
20260502T00Z_MSC_CAPS_WindSpeed_IsbL-0300_RLatLon0.03_PT036H.grib2 2026-05-02 06:16 1.0M
20260502T00Z_MSC_CAPS_WindSpeed_IsbL-0350_RLatLon0.03_PT036H.grib2 2026-05-02 06:16 1.0M
20260502T00Z_MSC_CAPS_WindSpeed_IsbL-0400_RLatLon0.03_PT036H.grib2 2026-05-02 06:16 1.0M
20260502T00Z_MSC_CAPS_WindSpeed_IsbL-0450_RLatLon0.03_PT036H.grib2 2026-05-02 06:16 1.3M
20260502T00Z_MSC_CAPS_WindSpeed_IsbL-0500_RLatLon0.03_PT036H.grib2 2026-05-02 06:16 1.4M
20260502T00Z_MSC_CAPS_WindSpeed_IsbL-0550_RLatLon0.03_PT036H.grib2 2026-05-02 06:16 1.5M
20260502T00Z_MSC_CAPS_WindSpeed_IsbL-0600_RLatLon0.03_PT036H.grib2 2026-05-02 06:16 1.4M
20260502T00Z_MSC_CAPS_WindSpeed_IsbL-0650_RLatLon0.03_PT036H.grib2 2026-05-02 06:16 1.4M
20260502T00Z_MSC_CAPS_WindSpeed_IsbL-0700_RLatLon0.03_PT036H.grib2 2026-05-02 06:16 1.5M
20260502T00Z_MSC_CAPS_WindSpeed_IsbL-0750_RLatLon0.03_PT036H.grib2 2026-05-02 06:16 1.5M
20260502T00Z_MSC_CAPS_WindSpeed_IsbL-0800_RLatLon0.03_PT036H.grib2 2026-05-02 06:16 1.6M
20260502T00Z_MSC_CAPS_WindSpeed_IsbL-0850_RLatLon0.03_PT036H.grib2 2026-05-02 06:16 1.7M
20260502T00Z_MSC_CAPS_WindSpeed_IsbL-0875_RLatLon0.03_PT036H.grib2 2026-05-02 06:16 1.8M
20260502T00Z_MSC_CAPS_WindSpeed_IsbL-0900_RLatLon0.03_PT036H.grib2 2026-05-02 06:16 1.8M
20260502T00Z_MSC_CAPS_WindSpeed_IsbL-0925_RLatLon0.03_PT036H.grib2 2026-05-02 06:16 1.9M
20260502T00Z_MSC_CAPS_WindSpeed_IsbL-0950_RLatLon0.03_PT036H.grib2 2026-05-02 06:16 1.9M
20260502T00Z_MSC_CAPS_WindSpeed_IsbL-0970_RLatLon0.03_PT036H.grib2 2026-05-02 06:16 2.0M
20260502T00Z_MSC_CAPS_WindSpeed_IsbL-0985_RLatLon0.03_PT036H.grib2 2026-05-02 06:16 2.0M
20260502T00Z_MSC_CAPS_WindSpeed_IsbL-1000_RLatLon0.03_PT036H.grib2 2026-05-02 06:16 2.0M
20260502T00Z_MSC_CAPS_WindSpeed_IsbL-1015_RLatLon0.03_PT036H.grib2 2026-05-02 06:16 2.1M
20260502T00Z_MSC_CAPS_WindU_AGL-10m_RLatLon0.03_PT036H.grib2 2026-05-02 06:16 1.9M
20260502T00Z_MSC_CAPS_WindU_AGL-120m_RLatLon0.03_PT036H.grib2 2026-05-02 06:16 907K
20260502T00Z_MSC_CAPS_WindU_AGL-40m_RLatLon0.03_PT036H.grib2 2026-05-02 06:16 1.2M
20260502T00Z_MSC_CAPS_WindU_AGL-80m_RLatLon0.03_PT036H.grib2 2026-05-02 06:16 912K
20260502T00Z_MSC_CAPS_WindU_IsbL-0050_RLatLon0.03_PT036H.grib2 2026-05-02 06:16 944K
20260502T00Z_MSC_CAPS_WindU_IsbL-0100_RLatLon0.03_PT036H.grib2 2026-05-02 06:16 1.0M
20260502T00Z_MSC_CAPS_WindU_IsbL-0150_RLatLon0.03_PT036H.grib2 2026-05-02 06:16 716K
20260502T00Z_MSC_CAPS_WindU_IsbL-0175_RLatLon0.03_PT036H.grib2 2026-05-02 06:16 852K
20260502T00Z_MSC_CAPS_WindU_IsbL-0200_RLatLon0.03_PT036H.grib2 2026-05-02 06:16 869K
20260502T00Z_MSC_CAPS_WindU_IsbL-0225_RLatLon0.03_PT036H.grib2 2026-05-02 06:16 891K
20260502T00Z_MSC_CAPS_WindU_IsbL-0250_RLatLon0.03_PT036H.grib2 2026-05-02 06:16 911K
20260502T00Z_MSC_CAPS_WindU_IsbL-0275_RLatLon0.03_PT036H.grib2 2026-05-02 06:16 707K
20260502T00Z_MSC_CAPS_WindU_IsbL-0300_RLatLon0.03_PT036H.grib2 2026-05-02 06:16 717K
20260502T00Z_MSC_CAPS_WindU_IsbL-0350_RLatLon0.03_PT036H.grib2 2026-05-02 06:16 724K
20260502T00Z_MSC_CAPS_WindU_IsbL-0400_RLatLon0.03_PT036H.grib2 2026-05-02 06:16 947K
20260502T00Z_MSC_CAPS_WindU_IsbL-0450_RLatLon0.03_PT036H.grib2 2026-05-02 06:16 970K
20260502T00Z_MSC_CAPS_WindU_IsbL-0500_RLatLon0.03_PT036H.grib2 2026-05-02 06:16 1.0M
20260502T00Z_MSC_CAPS_WindU_IsbL-0550_RLatLon0.03_PT036H.grib2 2026-05-02 06:16 1.0M
20260502T00Z_MSC_CAPS_WindU_IsbL-0600_RLatLon0.03_PT036H.grib2 2026-05-02 06:16 960K
20260502T00Z_MSC_CAPS_WindU_IsbL-0650_RLatLon0.03_PT036H.grib2 2026-05-02 06:16 1.0M
20260502T00Z_MSC_CAPS_WindU_IsbL-0700_RLatLon0.03_PT036H.grib2 2026-05-02 06:16 1.3M
20260502T00Z_MSC_CAPS_WindU_IsbL-0750_RLatLon0.03_PT036H.grib2 2026-05-02 06:16 1.4M
20260502T00Z_MSC_CAPS_WindU_IsbL-0800_RLatLon0.03_PT036H.grib2 2026-05-02 06:16 1.5M
20260502T00Z_MSC_CAPS_WindU_IsbL-0850_RLatLon0.03_PT036H.grib2 2026-05-02 06:16 1.2M
20260502T00Z_MSC_CAPS_WindU_IsbL-0875_RLatLon0.03_PT036H.grib2 2026-05-02 06:16 1.2M
20260502T00Z_MSC_CAPS_WindU_IsbL-0900_RLatLon0.03_PT036H.grib2 2026-05-02 06:16 1.3M
20260502T00Z_MSC_CAPS_WindU_IsbL-0925_RLatLon0.03_PT036H.grib2 2026-05-02 06:16 1.3M
20260502T00Z_MSC_CAPS_WindU_IsbL-0950_RLatLon0.03_PT036H.grib2 2026-05-02 06:16 1.4M
20260502T00Z_MSC_CAPS_WindU_IsbL-0970_RLatLon0.03_PT036H.grib2 2026-05-02 06:16 1.4M
20260502T00Z_MSC_CAPS_WindU_IsbL-0985_RLatLon0.03_PT036H.grib2 2026-05-02 06:16 1.5M
20260502T00Z_MSC_CAPS_WindU_IsbL-1000_RLatLon0.03_PT036H.grib2 2026-05-02 06:16 1.8M
20260502T00Z_MSC_CAPS_WindU_IsbL-1015_RLatLon0.03_PT036H.grib2 2026-05-02 06:16 1.9M
20260502T00Z_MSC_CAPS_WindV_AGL-10m_RLatLon0.03_PT036H.grib2 2026-05-02 06:16 2.0M
20260502T00Z_MSC_CAPS_WindV_AGL-120m_RLatLon0.03_PT036H.grib2 2026-05-02 06:16 1.2M
20260502T00Z_MSC_CAPS_WindV_AGL-40m_RLatLon0.03_PT036H.grib2 2026-05-02 06:16 1.2M
20260502T00Z_MSC_CAPS_WindV_AGL-80m_RLatLon0.03_PT036H.grib2 2026-05-02 06:16 1.2M
20260502T00Z_MSC_CAPS_WindV_IsbL-0050_RLatLon0.03_PT036H.grib2 2026-05-02 06:16 765K
20260502T00Z_MSC_CAPS_WindV_IsbL-0100_RLatLon0.03_PT036H.grib2 2026-05-02 06:16 898K
20260502T00Z_MSC_CAPS_WindV_IsbL-0150_RLatLon0.03_PT036H.grib2 2026-05-02 06:16 721K
20260502T00Z_MSC_CAPS_WindV_IsbL-0175_RLatLon0.03_PT036H.grib2 2026-05-02 06:16 854K
20260502T00Z_MSC_CAPS_WindV_IsbL-0200_RLatLon0.03_PT036H.grib2 2026-05-02 06:16 871K
20260502T00Z_MSC_CAPS_WindV_IsbL-0225_RLatLon0.03_PT036H.grib2 2026-05-02 06:16 680K
20260502T00Z_MSC_CAPS_WindV_IsbL-0250_RLatLon0.03_PT036H.grib2 2026-05-02 06:16 701K
20260502T00Z_MSC_CAPS_WindV_IsbL-0275_RLatLon0.03_PT036H.grib2 2026-05-02 06:16 709K
20260502T00Z_MSC_CAPS_WindV_IsbL-0300_RLatLon0.03_PT036H.grib2 2026-05-02 06:16 717K
20260502T00Z_MSC_CAPS_WindV_IsbL-0350_RLatLon0.03_PT036H.grib2 2026-05-02 06:16 725K
20260502T00Z_MSC_CAPS_WindV_IsbL-0400_RLatLon0.03_PT036H.grib2 2026-05-02 06:16 946K
20260502T00Z_MSC_CAPS_WindV_IsbL-0450_RLatLon0.03_PT036H.grib2 2026-05-02 06:16 969K
20260502T00Z_MSC_CAPS_WindV_IsbL-0500_RLatLon0.03_PT036H.grib2 2026-05-02 06:16 1.0M
20260502T00Z_MSC_CAPS_WindV_IsbL-0550_RLatLon0.03_PT036H.grib2 2026-05-02 06:16 931K
20260502T00Z_MSC_CAPS_WindV_IsbL-0600_RLatLon0.03_PT036H.grib2 2026-05-02 06:16 956K
20260502T00Z_MSC_CAPS_WindV_IsbL-0650_RLatLon0.03_PT036H.grib2 2026-05-02 06:16 1.0M
20260502T00Z_MSC_CAPS_WindV_IsbL-0700_RLatLon0.03_PT036H.grib2 2026-05-02 06:16 1.0M
20260502T00Z_MSC_CAPS_WindV_IsbL-0750_RLatLon0.03_PT036H.grib2 2026-05-02 06:16 1.1M
20260502T00Z_MSC_CAPS_WindV_IsbL-0800_RLatLon0.03_PT036H.grib2 2026-05-02 06:16 1.1M
20260502T00Z_MSC_CAPS_WindV_IsbL-0850_RLatLon0.03_PT036H.grib2 2026-05-02 06:16 1.2M
20260502T00Z_MSC_CAPS_WindV_IsbL-0875_RLatLon0.03_PT036H.grib2 2026-05-02 06:16 1.2M
20260502T00Z_MSC_CAPS_WindV_IsbL-0900_RLatLon0.03_PT036H.grib2 2026-05-02 06:16 1.3M
20260502T00Z_MSC_CAPS_WindV_IsbL-0925_RLatLon0.03_PT036H.grib2 2026-05-02 06:16 1.3M
20260502T00Z_MSC_CAPS_WindV_IsbL-0950_RLatLon0.03_PT036H.grib2 2026-05-02 06:16 1.3M
20260502T00Z_MSC_CAPS_WindV_IsbL-0970_RLatLon0.03_PT036H.grib2 2026-05-02 06:16 1.4M
20260502T00Z_MSC_CAPS_WindV_IsbL-0985_RLatLon0.03_PT036H.grib2 2026-05-02 06:16 1.8M
20260502T00Z_MSC_CAPS_WindV_IsbL-1000_RLatLon0.03_PT036H.grib2 2026-05-02 06:16 1.8M
20260502T00Z_MSC_CAPS_WindV_IsbL-1015_RLatLon0.03_PT036H.grib2 2026-05-02 06:16 1.8M